TimeMDT,TemperatureF,Dew PointF,Humidity,Sea Level PressureIn,VisibilityMPH,Wind Direction,Wind SpeedMPH,Gust SpeedMPH,PrecipitationIn,Events,Conditions,WindDirDegrees,DateUTC
12:53 AM,57.9,30.9,36,29.88,10.0,WNW,4.6,-,N/A,,Mostly Cloudy,290,2013-05-15 06:53:00
1:53 AM,57.0,32.0,39,29.90,10.0,WNW,6.9,-,N/A,,Overcast,300,2013-05-15 07:53:00
2:53 AM,55.0,33.1,43,29.91,10.0,NW,9.2,-,N/A,,Mostly Cloudy,320,2013-05-15 08:53:00
3:53 AM,55.0,34.0,45,29.91,10.0,NW,6.9,-,N/A,,Overcast,320,2013-05-15 09:53:00
4:53 AM,55.0,35.1,47,29.93,10.0,WNW,6.9,-,N/A,,Overcast,290,2013-05-15 10:53:00
5:53 AM,55.0,35.1,47,29.94,10.0,WNW,5.8,-,N/A,,Overcast,300,2013-05-15 11:53:00
6:53 AM,55.0,36.0,49,29.96,10.0,West,3.5,-,N/A,,Overcast,270,2013-05-15 12:53:00
10:53 AM,70.0,27.0,20,29.95,10.0,Variable,6.9,-,N/A,,Mostly Cloudy,0,2013-05-15 16:53:00
11:53 AM,72.0,27.0,19,29.94,10.0,NNW,6.9,-,N/A,,Clear,340,2013-05-15 17:53:00
12:53 PM,73.9,28.0,18,29.92,10.0,South,5.8,-,N/A,,Clear,180,2013-05-15 18:53:00
1:53 PM,75.0,28.0,18,29.90,10.0,NNE,10.4,-,N/A,,Clear,20,2013-05-15 19:53:00
2:53 PM,75.9,28.0,17,29.87,10.0,Variable,4.6,-,N/A,,Clear,0,2013-05-15 20:53:00
3:53 PM,75.0,28.9,18,29.85,10.0,Calm,Calm,-,N/A,,Clear,0,2013-05-15 21:53:00
4:53 PM,77.0,30.0,18,29.83,10.0,NNW,4.6,-,N/A,,Clear,340,2013-05-15 22:53:00
5:53 PM,75.9,30.9,19,29.82,10.0,Variable,3.5,-,N/A,,Clear,0,2013-05-15 23:53:00
6:53 PM,75.0,32.0,21,29.81,10.0,NE,10.4,-,N/A,,Clear,40,2013-05-16 00:53:00
7:53 PM,70.0,30.0,23,29.83,10.0,NNE,12.7,-,N/A,,Clear,30,2013-05-16 01:53:00
8:53 PM,66.0,30.0,26,29.83,10.0,NE,12.7,-,N/A,,Clear,40,2013-05-16 02:53:00
9:53 PM,64.9,32.0,29,29.83,10.0,ENE,11.5,-,N/A,,Clear,60,2013-05-16 03:53:00
10:53 PM,64.9,28.9,26,29.82,10.0,ENE,12.7,-,N/A,,Partly Cloudy,70,2013-05-16 04:53:00
11:53 PM,64.0,30.0,28,29.81,10.0,NE,15.0,-,N/A,,Mostly Cloudy,40,2013-05-16 05:53:00